Powrót do katalogu

STARLINK-36709

AktywnyŁącznośćSSO
NORAD 67969·PAYLOAD·🇺🇸 United States

Wystrzelony Feb 25, 2026 z Vandenberg Space Force Base

Loading…

Następne Przeloty (najbliższe 24 godziny)

TLE

ŚwieżeSource: CelesTrak SupGP

Epoka: Sep 15, 2026, 02:44 UTC

1 67969C 26038J   26258.11437500 -.00058107  00000+0 -18040-2 0  2585
2 67969  97.2845 266.5230 0001671  88.6077  48.0015 15.33464069    19

Śledź STARLINK-36709 w czasie rzeczywistym z AllMySat

Download on the App Store